Location: Cluny
(50.9333°N, 112.8167°W)
Time: 11:53:37
(UTC-06:00)

Amateur Radio Satellites - All Passes

Search period start: 27 May 2015 11:23
Search period end: 28 May 2015 11:23
Location: Cluny, 50.9333°N, 112.8167°W

Satellite Date Start Highest point End Downlink Frequencies (MHz)
Time Altitude Azimuth
QB50P2 27 May 11:29:21 11:33:39 74° 74° (ENE) 11:37:58 145.880/145.840
CANX-2 27 May 11:29:40 11:33:13 26° 296° (WNW) 11:36:39 2200.000
ZACube-1 27 May 11:30:16 11:34:37 59° 100° (E) 11:38:50 437.345
CUBEBUG 2 27 May 11:30:22 11:34:56 89° 104° (ESE) 11:39:18 437.445
UKube-1 27 May 11:31:29 11:35:16 29° 94° (E) 11:39:05 .
CUTE 1.7 + AOD 2 27 May 11:33:09 11:36:41 26° 296° (WNW) 11:40:10 437.475
ANTELSAT 27 May 11:35:58 11:40:34 52° 261° (W) 11:45:05 437.575/2403.000
DX 1 27 May 11:40:40 11:44:46 37° 97° (E) 11:48:52 434.975-435.025
POPSAT HIP 1 27 May 11:41:30 11:45:49 87° 254° (WSW) 11:50:10 437.405
Oscar 11 27 May 11:41:52 11:46:10 66° 288° (WNW) 11:50:25 145.826/435.025
DUCHIFAT 1 27 May 11:43:07 11:47:24 86° 255° (WSW) 11:51:44 145.980
BRITE-PL 27 May 11:45:38 11:49:20 18° 306° (NW) 11:52:48 437.365/2234.400
GOMX 1 27 May 11:45:48 11:49:53 21° 303° (WNW) 11:53:44 467.674
HO-68 27 May 11:50:24 11:57:06 43° 300° (WNW) 12:03:42 435.675
CUBEBUG 1 27 May 11:54:13 11:57:00 17° 88° (E) 11:59:56 437.445
SEEDS 27 May 11:55:27 11:58:32 20° 298° (WNW) 12:01:31 437.485
GONETS M04 27 May 11:56:08 11:59:33 13° 69° (ENE) 12:03:33
VELOX 1 27 May 11:56:30 12:00:26 30° 94° (E) 12:04:24 145.980
ESTCUBE 1 27 May 12:01:16 12:04:45 22° 91° (E) 12:08:19 437.505/2401.250
Oscar 19 27 May 12:02:19 12:04:33 13° 51° (NE) 12:06:58 437.125/150
BUGSAT 1 27 May 12:04:21 12:08:31 74° 257° (WSW) 12:12:47 437.445
CUSAT 1 27 May 12:04:34 12:09:08 18° 76° (ENE) 12:14:16 437.405
COMPASS 1 27 May 12:08:08 12:11:01 18° 299° (WNW) 12:13:49 437.405
PCSat 27 May 12:08:47 12:12:16 17° 253° (WSW) 12:15:34 145.827
TIGRISAT 27 May 12:09:23 12:13:26 28° 267° (W) 12:17:24 435.000
Cosmos 2504 27 May 12:11:17 12:19:13 50° 289° (WNW) 12:26:37 435.465 / 435.565
50 SAT 27 May 12:11:42 12:15:27 43° 98° (E) 12:19:09 437.505
UWE-3 27 May 12:17:05 12:21:18 41° 292° (WNW) 12:25:22 435.000/436.395/437.385
CINEMA 3 27 May 12:19:07 12:22:55 23° 300° (WNW) 12:26:29 145.822/145.860
AAUSAT CUBESAT 2 27 May 12:20:05 12:22:43 16° 300° (WNW) 12:25:15 437.432
FUNcube-1 27 May 12:25:56 12:30:05 42° 292° (WNW) 12:34:06 145.935
QB50P1 27 May 12:26:09 12:30:03 33° 264° (W) 12:33:58 145.935-145.965
AISAT 27 May 12:28:02 12:32:30 59° 101° (E) 12:36:56 437.250
POLYITAN 1 27 May 12:28:28 12:32:21 31° 265° (W) 12:36:13 437.675
UNISAT 6 27 May 12:31:04 12:34:21 18° 271° (W) 12:37:31 437.425
SPROUT 27 May 12:32:12 12:33:51 12° 85° (E) 12:35:41 437.525
DELFI C3 27 May 12:43:48 12:46:57 22° 297° (WNW) 12:50:01 145.870
SO-50 27 May 12:44:59 12:49:49 51° 236° (SW) 12:54:34 436.795
DOVE 4 27 May 12:46:33 12:47:50 11° 311° (NW) 12:48:53 437.250
TISAT 1 27 May 12:53:14 12:55:29 14° 87° (E) 12:57:54 437.305
HUMSAT D 27 May 12:56:56 13:00:53 40° 292° (WNW) 13:04:45 437.325/437.525
Gurwin Techsat 1B 27 May 12:57:58 13:00:07 13° 50° (NE) 13:02:28 435.225
NANOSAT C BR1 27 May 12:58:37 13:01:35 18° 271° (W) 13:04:27 145.865
ZACube-1 27 May 13:07:24 13:10:36 20° 300° (WNW) 13:13:38 437.345
UKube-1 27 May 13:07:27 13:11:30 37° 294° (WNW) 13:15:30 .
QB50P2 27 May 13:07:40 13:10:07 14° 273° (W) 13:12:26 145.880/145.840
RS-15 27 May 13:08:15 13:18:50 47° 339° (NNW) 13:29:51 29.354- 29.394
CUBEBUG 2 27 May 13:08:23 13:10:59 15° 304° (WNW) 13:13:25 437.445
DANDE 27 May 13:15:48 13:22:36 39° 87° (E) 13:30:20 436.750
DX 1 27 May 13:17:04 13:20:56 30° 296° (WNW) 13:24:44 434.975-435.025
Oscar 11 27 May 13:20:33 13:21:35 11° 306° (NW) 13:22:26 145.826/435.025
POPSAT HIP 1 27 May 13:20:58 13:22:27 11° 276° (W) 13:23:45 437.405
DUCHIFAT 1 27 May 13:22:37 13:23:59 11° 276° (W) 13:25:07 145.980
AO-7 27 May 13:23:50 13:28:21 16° 32° (NNE) 13:33:07 29.400- 29.500
CUBEBUG 1 27 May 13:29:26 13:33:53 68° 288° (WNW) 13:38:19 437.445
VELOX 1 27 May 13:32:55 13:37:06 38° 293° (WNW) 13:41:13 145.980
ESTCUBE 1 27 May 13:37:31 13:41:57 52° 290° (WNW) 13:46:21 437.505/2401.250
Oscar 19 27 May 13:37:54 13:43:01 62° 70° (ENE) 13:48:11 437.125/150
HO-68 27 May 13:39:54 13:43:10 13° 323° (NW) 13:46:09 435.675
CUSAT 1 27 May 13:42:51 13:50:26 66° 96° (E) 13:58:43 437.405
GONETS M04 27 May 13:46:02 13:54:33 57° 91° (E) 14:03:10
50 SAT 27 May 13:46:56 13:49:56 21° 297° (WNW) 13:52:50 437.505
ITAMSAT 1 27 May 13:53:50 13:58:20 32° 62° (ENE) 14:02:55 435.822/435.867
ITUPSAT 1 27 May 13:59:12 14:01:14 13° 85° (E) 14:03:29 437.325
AISAT 27 May 14:05:19 14:08:43 21° 300° (WNW) 14:12:03 437.250
BEESAT 27 May 14:06:04 14:08:44 15° 86° (E) 14:11:35 436.000
SPROUT 27 May 14:06:16 14:10:40 88° 283° (WNW) 14:15:00 437.525
Cosmos 2504 27 May 14:11:12 14:14:54 13° 315° (NW) 14:18:09 435.465 / 435.565
SWISSCUBE 27 May 14:14:10 14:17:32 19° 89° (E) 14:21:00 437.505
TISAT 1 27 May 14:27:33 14:31:52 74° 286° (WNW) 14:36:06 437.305
Gurwin Techsat 1B 27 May 14:33:56 14:39:08 59° 70° (ENE) 14:44:24 435.225
Cosmos 2499 27 May 14:47:16 14:53:31 27° 83° (E) 14:59:38 435.465 / 435.565
DANDE 27 May 14:57:55 15:05:30 64° 289° (WNW) 15:14:04 436.750
CUBEBUG 1 27 May 15:07:55 15:09:29 12° 306° (NW) 15:10:53 437.445
AO-7 27 May 15:11:33 15:19:13 45° 56° (NE) 15:27:00 29.400- 29.500
JAS-2 27 May 15:15:35 15:21:12 35° 64° (ENE) 15:26:21 435.910
Oscar 19 27 May 15:18:44 15:22:50 23° 270° (W) 15:26:51 437.125/150
RS-15 27 May 15:23:44 15:34:17 43° 12° (NNE) 15:45:21 29.354- 29.394
CUSAT 1 27 May 15:26:24 15:33:43 39° 299° (WNW) 15:41:22 437.405
HORYU 2 27 May 15:32:38 15:36:46 38° 67° (ENE) 15:40:57 437.375
ITAMSAT 1 27 May 15:32:44 15:37:43 46° 261° (W) 15:42:43 435.822/435.867
ITUPSAT 1 27 May 15:35:08 15:39:58 85° 106° (ESE) 15:44:46 437.325
KKS-1 27 May 15:37:01 15:40:25 21° 91° (E) 15:43:53 437.445
BEESAT 27 May 15:42:28 15:47:17 82° 285° (WNW) 15:52:03 436.000
GONETS M04 27 May 15:43:28 15:51:48 43° 295° (WNW) 16:00:06
SPROUT 27 May 15:43:49 15:46:08 14° 303° (WNW) 15:48:19 437.525
O/OREOS (USA 219) 27 May 15:49:48 15:53:13 22° 104° (ESE) 15:56:44 437.305
SWISSCUBE 27 May 15:51:07 15:55:53 65° 289° (WNW) 16:00:37 437.505
TISAT 1 27 May 16:05:17 16:06:56 12° 305° (NW) 16:08:25 437.305
Gurwin Techsat 1B 27 May 16:15:13 16:19:33 24° 269° (W) 16:23:49 435.225
Cubesat XI-IV 27 May 16:36:02 16:36:59 11° 47° (NE) 16:38:10 437.490
Cosmos 2499 27 May 16:38:08 16:46:08 74° 283° (WNW) 16:53:34 435.465 / 435.565
STARS 27 May 16:39:07 16:43:28 51° 100° (E) 16:47:47 437.465
DANDE 27 May 16:44:49 16:50:45 21° 314° (NW) 16:56:43 436.750
JAS-2 27 May 16:59:58 17:06:16 50° 261° (W) 17:11:52 435.910
AO-7 27 May 17:03:45 17:11:54 57° 258° (WSW) 17:20:07 29.400- 29.500
HORYU 2 27 May 17:09:35 17:13:32 29° 266° (W) 17:17:26 437.375
MOZHAYETS 4 27 May 17:10:44 17:13:55 19° 88° (E) 17:17:13
KKS-1 27 May 17:13:00 17:17:24 53° 290° (WNW) 17:21:45 437.445
ITUPSAT 1 27 May 17:14:10 17:17:18 17° 304° (WNW) 17:20:18 437.325
CUSAT 1 27 May 17:15:26 17:19:09 13° 323° (NW) 17:22:32 437.405
BEESAT 27 May 17:21:44 17:24:27 15° 305° (NW) 17:27:02 436.000
YUBILEINY 27 May 17:24:52 17:31:28 24° 52° (NE) 17:38:18 435.215
O/OREOS (USA 219) 27 May 17:27:55 17:32:20 54° 303° (WNW) 17:36:46 437.305
SWISSCUBE 27 May 17:30:57 17:32:56 12° 308° (NW) 17:34:44 437.505
RS-15 27 May 17:37:20 17:48:49 74° 42° (NE) 18:00:52 29.354- 29.394
GONETS M04 27 May 17:48:09 17:51:55 13° 324° (NW) 17:55:17
CUTE-I 27 May 17:50:32 17:55:14 34° 63° (ENE) 18:00:02 437.470
Cubesat XI-IV 27 May 18:10:54 18:15:58 48° 67° (ENE) 18:21:06 437.490
STARS 27 May 18:16:06 18:19:39 23° 299° (WNW) 18:23:06 437.465
BEESAT 2 27 May 18:26:45 18:29:47 21° 116° (ESE) 18:32:56 435.950
Cosmos 2499 27 May 18:35:24 18:40:47 19° 307° (NW) 18:45:41 435.465 / 435.565
MOZHAYETS 4 27 May 18:47:04 18:51:36 61° 289° (WNW) 18:56:06
CUBESAT XI-V 27 May 18:51:27 18:54:39 18° 88° (E) 18:57:59 437.345
HO-68 27 May 18:51:54 18:56:26 19° 44° (NE) 19:01:10 435.675
AO-7 27 May 19:03:12 19:06:56 13° 282° (WNW) 19:10:06 29.400- 29.500
DOVE 4 27 May 19:06:21 19:06:50 10° 48° (NE) 19:07:34 437.250
O/OREOS (USA 219) 27 May 19:10:50 19:12:52 13° 326° (NW) 19:14:46 437.305
BEESAT 3 27 May 19:13:33 19:17:35 61° 126° (SE) 19:21:41 437.485
YUBILEINY 27 May 19:21:11 19:29:58 82° 79° (E) 19:38:41 435.215
CUTE-I 27 May 19:30:10 19:35:14 44° 262° (W) 19:40:21 437.470
Cosmos 2491 27 May 19:31:29 19:39:30 42° 86° (E) 19:47:40 435.465 / 435.565
GOMX 1 27 May 19:42:38 19:46:54 26° 60° (ENE) 19:51:22 467.674
SEEDS 27 May 19:43:27 19:44:41 11° 56° (NE) 19:46:05 437.485
BRITE-PL 27 May 19:43:30 19:48:15 36° 64° (ENE) 19:53:20 437.365/2234.400
RS-15 27 May 19:50:07 20:00:52 46° 247° (WSW) 20:11:52 29.354- 29.394
Cubesat XI-IV 27 May 19:51:36 19:56:18 31° 267° (W) 20:00:59 437.490
PRISM 27 May 19:54:16 19:57:53 29° 95° (E) 20:01:32 437.425
COMPASS 1 27 May 19:55:05 19:56:35 12° 56° (ENE) 19:58:14 437.405
AIST 2 27 May 19:58:27 20:02:32 46° 123° (ESE) 20:06:40 435.215
BEESAT 2 27 May 20:03:25 20:07:32 63° 315° (NW) 20:11:41 435.950
Cosmos 2504 27 May 20:04:34 20:09:42 21° 54° (NE) 20:14:58 435.465 / 435.565
AAUSAT CUBESAT 2 27 May 20:06:05 20:07:57 13° 58° (ENE) 20:09:59 437.432
CINEMA 3 27 May 20:12:28 20:15:39 18° 57° (ENE) 20:18:59 145.822/145.860
M-CUBED/EXP-1 PRIME 27 May 20:12:52 20:13:51 11° 94° (E) 20:14:59 437.505
AUBIESAT-1 27 May 20:20:02 20:21:15 12° 95° (E) 20:22:36 437.475
MOZHAYETS 4 27 May 20:26:47 20:28:00 11° 307° (NW) 20:29:02
CUBESAT XI-V 27 May 20:27:55 20:32:36 66° 288° (WNW) 20:37:15 437.345
STRAND 1 27 May 20:28:08 20:33:12 55° 100° (E) 20:38:16 437.568
HO-68 27 May 20:35:55 20:42:58 63° 66° (ENE) 20:50:05 435.675
DOVE 4 27 May 20:38:28 20:43:25 46° 68° (ENE) 20:48:32 437.250
CANX-2 27 May 20:50:59 20:55:09 55° 72° (ENE) 20:59:21 2200.000
BEESAT 3 27 May 20:52:19 20:55:53 27° 327° (NNW) 20:59:27 437.485
CUTE 1.7 + AOD 2 27 May 20:54:25 20:58:34 54° 71° (ENE) 21:02:44 437.475
ZACube-1 27 May 20:56:59 20:59:27 15° 57° (ENE) 21:02:02 437.345
CUBEBUG 2 27 May 20:57:50 21:01:24 22° 61° (ENE) 21:05:02 437.445
Oscar 11 27 May 21:06:15 21:09:44 24° 63° (ENE) 21:13:17 145.826/435.025
AIST 1 27 May 21:07:13 21:11:12 41° 93° (E) 21:15:17
DX 1 27 May 21:08:58 21:09:45 11° 52° (NE) 21:10:43 434.975-435.025
SEEDS 27 May 21:15:36 21:19:48 74° 74° (ENE) 21:24:01 437.485
YUBILEINY 27 May 21:18:58 21:25:57 27° 280° (W) 21:32:40 435.215
GOMX 1 27 May 21:19:23 21:24:35 64° 259° (W) 21:30:04 467.674
BRITE-PL 27 May 21:21:39 21:26:40 44° 265° (W) 21:31:59 437.365/2234.400
COMPASS 1 27 May 21:27:26 21:31:37 79° 73° (ENE) 21:35:49 437.405
Cosmos 2491 27 May 21:27:35 21:36:14 56° 289° (WNW) 21:44:55 435.465 / 435.565
PRISM 27 May 21:29:36 21:33:23 34° 294° (WNW) 21:37:09 437.425
AIST 2 27 May 21:37:18 21:41:15 34° 324° (NW) 21:45:12 435.215
AAUSAT CUBESAT 2 27 May 21:38:49 21:42:59 89° 78° (ENE) 21:47:11 437.432
UWE-3 27 May 21:42:19 21:46:41 40° 68° (ENE) 21:51:03 435.000/436.395/437.385
BEESAT 2 27 May 21:43:26 21:46:24 18° 337° (NNW) 21:49:20 435.950
M-CUBED/EXP-1 PRIME 27 May 21:45:54 21:49:13 59° 293° (WNW) 21:52:28 437.505
CINEMA 3 27 May 21:47:12 21:52:14 89° 251° (WSW) 21:57:19 145.822/145.860
FUNcube-1 27 May 21:50:06 21:54:19 38° 67° (ENE) 21:58:31 145.935
AUBIESAT-1 27 May 21:53:13 21:56:30 56° 294° (WNW) 21:59:44 437.475
GONETS M04 27 May 21:55:11 21:57:27 11° 33° (NNE) 22:00:07
AISAT 27 May 21:56:20 21:58:58 16° 57° (ENE) 22:01:45 437.250
Cosmos 2504 27 May 21:57:09 22:04:29 84° 79° (E) 22:11:41 435.465 / 435.565
DELFI C3 27 May 22:00:11 22:04:07 54° 72° (ENE) 22:08:05 145.870
CUBESAT XI-V 27 May 22:07:24 22:09:14 12° 306° (NW) 22:10:55 437.345
STRAND 1 27 May 22:07:50 22:12:10 27° 299° (WNW) 22:16:24 437.568
DANDE 27 May 22:10:00 22:13:53 14° 37° (NE) 22:17:49 436.750
DOVE 4 27 May 22:16:41 22:21:20 32° 268° (W) 22:26:04 437.250
HUMSAT D 27 May 22:17:52 22:21:45 34° 67° (ENE) 22:25:40 437.325/437.525
HO-68 27 May 22:24:47 22:31:13 33° 267° (W) 22:37:33 435.675
CANX-2 27 May 22:28:23 22:31:28 19° 271° (W) 22:34:26 2200.000
ZACube-1 27 May 22:30:35 22:35:12 87° 75° (ENE) 22:39:47 437.345
UKube-1 27 May 22:30:55 22:35:03 47° 69° (ENE) 22:39:16 .
CUTE 1.7 + AOD 2 27 May 22:31:46 22:34:51 19° 271° (W) 22:37:51 437.475
CUBEBUG 2 27 May 22:32:59 22:37:43 63° 259° (W) 22:42:26 437.445
BEESAT 3 27 May 22:33:13 22:35:09 13° 350° (N) 22:37:03 437.485
CUSAT 1 27 May 22:35:08 22:40:17 19° 46° (NE) 22:45:02 437.405
DX 1 27 May 22:40:53 22:45:11 62° 71° (ENE) 22:49:33 434.975-435.025
Oscar 11 27 May 22:41:32 22:45:43 45° 262° (W) 22:49:54 145.826/435.025
AIST 1 27 May 22:45:31 22:49:04 24° 293° (WNW) 22:52:35
SEEDS 27 May 22:53:51 22:56:10 14° 274° (W) 22:58:20 437.485
CUBEBUG 1 27 May 22:54:58 22:58:35 26° 63° (ENE) 23:02:17 437.445
VELOX 1 27 May 22:58:45 23:03:01 49° 69° (ENE) 23:07:22 145.980
50 SAT 27 May 23:00:53 23:04:47 52° 71° (ENE) 23:08:40 437.505
GOMX 1 27 May 23:02:25 23:03:58 11° 281° (WNW) 23:05:14 467.674
ESTCUBE 1 27 May 23:05:35 23:09:40 36° 66° (ENE) 23:13:49 437.505/2401.250
COMPASS 1 27 May 23:05:54 23:07:55 13° 274° (W) 23:09:45 437.405
AAUSAT CUBESAT 2 27 May 23:17:54 23:19:19 11° 276° (W) 23:20:30 437.432
AIST 2 27 May 23:18:34 23:21:01 15° 347° (NNW) 23:23:26 435.215
UWE-3 27 May 23:19:10 23:23:19 30° 266° (W) 23:27:24 435.000/436.395/437.385
ANTELSAT 27 May 23:23:28 23:26:58 23° 91° (E) 23:30:29 437.575/2403.000
POPSAT HIP 1 27 May 23:23:55 23:25:11 11° 84° (E) 23:26:40 437.405
BEESAT 2 27 May 23:24:21 23:26:01 12° 0° (N) 23:27:40 435.950
DUCHIFAT 1 27 May 23:25:02 23:26:18 11° 84° (E) 23:27:46 145.980
FUNcube-1 27 May 23:26:36 23:30:42 31° 266° (W) 23:34:44 145.935
CINEMA 3 27 May 23:27:17 23:30:12 15° 276° (W) 23:32:56 145.822/145.860
Cosmos 2491 27 May 23:30:18 23:35:43 17° 317° (NW) 23:40:47 435.465 / 435.565
AISAT 27 May 23:30:31 23:35:00 84° 255° (WSW) 23:39:32 437.250
SPROUT 27 May 23:30:44 23:33:45 19° 61° (ENE) 23:36:54 437.525
DELFI C3 27 May 23:36:51 23:39:36 17° 271° (W) 23:42:15 145.870
BUGSAT 1 27 May 23:43:18 23:45:04 12° 85° (E) 23:47:00 437.445
GONETS M04 27 May 23:49:49 23:57:50 38° 63° (ENE) 00:05:54
TISAT 1 27 May 23:49:55 23:53:08 22° 62° (ENE) 23:56:28 437.305
Cosmos 2504 27 May 23:51:44 23:57:00 22° 281° (W) 00:02:01 435.465 / 435.565
DANDE 27 May 23:52:06 23:59:51 43° 63° (ENE) 00:06:17 436.750
HUMSAT D 27 May 23:53:40 23:57:32 30° 266° (W) 00:01:21 437.325/437.525
TIGRISAT 27 May 23:55:25 23:59:39 44° 98° (E) 00:03:48 435.000
QB50P1 28 May 00:06:01 00:09:45 28° 94° (E) 00:13:29 145.935-145.965
UKube-1 28 May 00:07:58 00:11:27 23° 268° (W) 00:14:53 .
POLYITAN 1 28 May 00:08:33 00:12:21 30° 95° (E) 00:16:10 437.675
ZACube-1 28 May 00:09:51 00:12:15 14° 275° (W) 00:14:26 437.345
BEESAT 3 28 May 00:12:32 00:14:44 14° 14° (NNE) 00:16:58 437.485
O/OREOS (USA 219) 28 May 00:14:52 00:18:03 19° 42° (NE) 00:21:19 437.305
UNISAT 6 28 May 00:16:13 00:20:40 72° 103° (ESE) 00:24:59 437.425
CUSAT 1 28 May 00:17:10 00:24:49 69° 72° (ENE) 00:30:48 437.405
DX 1 28 May 00:18:52 00:21:53 18° 271° (W) 00:24:49 434.975-435.025
CUBEBUG 1 28 May 00:30:36 00:34:46 43° 262° (W) 00:39:00 437.445
Cosmos 2499 28 May 00:31:43 00:34:41 13° 45° (NE) 00:37:58 435.465 / 435.565
VELOX 1 28 May 00:36:18 00:39:52 23° 269° (W) 00:43:22 145.980
NANOSAT C BR1 28 May 00:36:42 00:40:56 55° 100° (E) 00:45:07 145.865
50 SAT 28 May 00:37:01 00:39:49 18° 270° (W) 00:42:31 437.505
ESTCUBE 1 28 May 00:42:37 00:46:37 31° 265° (W) 00:50:36 437.505/2401.250
QB50P2 28 May 00:45:29 00:49:47 70° 102° (ESE) 00:54:02 145.880/145.840
POPSAT HIP 1 28 May 00:57:29 01:01:50 88° 112° (ESE) 01:06:06 437.405
DUCHIFAT 1 28 May 00:58:33 01:02:52 88° 104° (ESE) 01:07:08 145.980
AIST 2 28 May 00:58:59 01:01:14 14° 11° (N) 01:03:30 435.215
ANTELSAT 28 May 00:59:47 01:04:02 46° 291° (WNW) 01:08:09 437.575/2403.000
BEESAT 2 28 May 01:02:37 01:05:37 19° 24° (NNE) 01:08:36 435.950
ISS 28 May 01:03:10 01:06:14 39° 153° (SSE) 01:09:19 145.825
SPROUT 28 May 01:05:10 01:09:28 62° 259° (W) 01:13:49 437.525
ITUPSAT 1 28 May 01:10:09 01:14:06 27° 62° (ENE) 01:18:08 437.325
AISAT 28 May 01:10:48 01:12:25 11° 276° (W) 01:13:48 437.250
PCSat 28 May 01:11:12 01:15:49 30° 113° (ESE) 01:20:33 145.827
BUGSAT 1 28 May 01:16:53 01:21:13 85° 287° (WNW) 01:25:29 437.445
BEESAT 28 May 01:16:56 01:21:04 31° 63° (ENE) 01:25:16 436.000
TISAT 1 28 May 01:24:29 01:28:38 51° 260° (W) 01:32:51 437.305
SWISSCUBE 28 May 01:25:19 01:29:41 38° 66° (ENE) 01:34:06 437.505
TIGRISAT 28 May 01:32:33 01:36:13 25° 297° (WNW) 01:39:45 435.000
DANDE 28 May 01:35:32 01:43:21 52° 268° (W) 01:49:38 436.750
QB50P1 28 May 01:41:44 01:45:42 36° 293° (WNW) 01:49:36 145.935-145.965
POLYITAN 1 28 May 01:44:23 01:48:18 34° 294° (WNW) 01:52:09 437.675
Oscar 19 28 May 01:45:42 01:48:30 15° 85° (E) 01:51:30 437.125/150
GONETS M04 28 May 01:46:39 01:55:20 64° 267° (W) 02:03:52
BEESAT 3 28 May 01:50:03 01:53:51 34° 37° (NE) 01:57:37 437.485
O/OREOS (USA 219) 28 May 01:53:36 01:58:05 81° 244° (WSW) 02:02:33 437.305
UNISAT 6 28 May 01:54:01 01:56:58 17° 302° (WNW) 01:59:46 437.425
CUSAT 1 28 May 02:00:40 02:06:47 28° 278° (W) 02:11:45 437.405
STARS 28 May 02:07:04 02:09:16 14° 56° (NE) 02:11:39 437.465
NANOSAT C BR1 28 May 02:13:13 02:16:27 21° 299° (WNW) 02:19:35 145.865
QB50P2 28 May 02:22:21 02:25:14 17° 301° (WNW) 02:27:59 145.880/145.840
Cosmos 2499 28 May 02:23:00 02:29:57 54° 72° (ENE) 02:36:55 435.465 / 435.565
POPSAT HIP 1 28 May 02:34:45 02:37:07 14° 303° (WNW) 02:39:20 437.405
DUCHIFAT 1 28 May 02:35:46 02:38:06 14° 303° (WNW) 02:40:18 145.980
AIST 2 28 May 02:37:18 02:41:05 30° 34° (NNE) 02:44:51 435.215
ISS 28 May 02:39:16 02:42:32 82° 350° (N) 02:45:49 145.825
KKS-1 28 May 02:39:44 02:43:49 36° 66° (ENE) 02:47:58 437.445
BEESAT 2 28 May 02:40:17 02:44:26 67° 46° (NE) 02:48:30 435.950
Gurwin Techsat 1B 28 May 02:46:07 02:49:14 16° 85° (E) 02:52:33 435.225
ITUPSAT 1 28 May 02:47:12 02:51:48 48° 261° (W) 02:56:26 437.325
PCSat 28 May 02:53:38 02:59:00 59° 313° (NW) 03:04:24 145.827
BUGSAT 1 28 May 02:53:56 02:56:03 13° 304° (WNW) 02:58:02 437.445
BEESAT 28 May 02:54:19 02:58:50 41° 263° (W) 03:03:20 436.000
SWISSCUBE 28 May 03:03:20 03:07:37 32° 265° (W) 03:11:53 437.505
SO-50 28 May 03:05:29 03:08:27 17° 112° (ESE) 03:11:37 436.795
DANDE 28 May 03:21:54 03:24:37 12° 290° (WNW) 03:26:45 436.750
Oscar 19 28 May 03:23:29 03:28:42 89° 85° (E) 03:33:52 437.125/150
BEESAT 3 28 May 03:28:03 03:31:55 41° 237° (WSW) 03:35:44 437.485
O/OREOS (USA 219) 28 May 03:35:26 03:36:48 11° 262° (W) 03:37:57 437.305
ITAMSAT 1 28 May 03:40:07 03:45:05 43° 98° (E) 03:50:05 435.822/435.867
STARS 28 May 03:40:38 03:45:06 84° 74° (ENE) 03:49:35 437.465
GONETS M04 28 May 03:45:43 03:50:29 15° 289° (WNW) 03:54:46
VERMONT LUNAR 28 May 04:01:57 04:03:29 13° 175° (S) 04:05:01 437.305
JAS-2 28 May 04:04:40 04:07:25 15° 85° (E) 04:10:25 435.910
ISS 28 May 04:15:45 04:19:01 89° 203° (SSW) 04:22:18 145.825
AIST 2 28 May 04:15:45 04:19:55 55° 235° (SW) 04:24:01 435.215
KKS-1 28 May 04:16:28 04:20:31 31° 265° (W) 04:24:32 437.445
Cosmos 2499 28 May 04:16:36 04:22:51 34° 274° (W) 04:29:01 435.465 / 435.565
MOZHAYETS 4 28 May 04:17:19 04:21:20 32° 65° (ENE) 04:25:24
BEESAT 2 28 May 04:19:10 04:22:07 19° 245° (WSW) 04:24:57 435.950
Gurwin Techsat 1B 28 May 04:24:42 04:30:03 88° 295° (WNW) 04:35:24 435.225
PCSat 28 May 04:39:30 04:43:34 21° 337° (NNW) 04:47:35 145.827
SO-50 28 May 04:43:36 04:48:23 89° 326° (NW) 04:53:19 436.795
PHONESAT 2.4 28 May 04:45:11 04:46:50 13° 169° (S) 04:48:31 2401.200-2431.200
HORYU 2 28 May 04:55:07 04:59:15 37° 97° (E) 05:03:22 437.375
AO-7 28 May 04:59:20 05:06:59 38° 96° (E) 05:14:42 29.400- 29.500
Oscar 19 28 May 05:03:58 05:07:26 18° 305° (NW) 05:10:46 437.125/150
ITAMSAT 1 28 May 05:19:50 05:24:31 34° 297° (WNW) 05:29:10 435.822/435.867
STARS 28 May 05:19:57 05:22:14 13° 274° (W) 05:24:20 437.465
Cosmos 2491 28 May 05:34:46 05:42:10 29° 57° (ENE) 05:49:42 435.465 / 435.565
VERMONT LUNAR 28 May 05:38:47 05:39:52 11° 191° (S) 05:40:56 437.305
JAS-2 28 May 05:48:14 05:53:28 86° 288° (WNW) 05:58:46 435.910
ISS 28 May 05:52:18 05:55:13 30° 211° (SSW) 05:58:07 145.825
MOZHAYETS 4 28 May 05:54:16 05:58:32 37° 264° (W) 06:02:45
CUBESAT XI-V 28 May 05:59:32 06:03:33 31° 65° (ENE) 06:07:39 437.345
Gurwin Techsat 1B 28 May 06:05:48 06:09:24 18° 305° (NW) 06:12:52 435.225
STRAND 1 28 May 06:11:31 06:15:27 23° 59° (ENE) 06:19:30 437.568
PHONESAT 2.4 28 May 06:22:09 06:24:08 14° 186° (S) 06:26:06 2401.200-2431.200
Cubesat XI-IV 28 May 06:24:45 06:26:51 12° 83° (E) 06:29:13 437.490
SO-50 28 May 06:25:26 06:29:35 27° 334° (NNW) 06:33:45 436.795
PCSat 28 May 06:26:06 06:29:03 15° 2° (N) 06:32:02 145.827
HORYU 2 28 May 06:31:55 06:35:49 30° 296° (WNW) 06:39:40 437.375
YUBILEINY 28 May 06:35:21 06:40:58 20° 75° (ENE) 06:46:55 435.215
PRISM 28 May 06:49:02 06:52:53 41° 68° (ENE) 06:56:47 437.425
AO-7 28 May 06:52:02 07:00:17 64° 297° (WNW) 07:08:30 29.400- 29.500
M-CUBED/EXP-1 PRIME 28 May 07:03:58 07:07:51 46° 65° (ENE) 07:11:27 437.505
AIST 1 28 May 07:09:19 07:12:32 20° 64° (ENE) 07:15:49
AUBIESAT-1 28 May 07:10:52 07:14:42 47° 65° (ENE) 07:18:18 437.475
Cosmos 2491 28 May 07:31:22 07:40:16 83° 263° (W) 07:49:04 435.465 / 435.565
JAS-2 28 May 07:34:46 07:37:58 16° 307° (NW) 07:41:00 435.910
CUBESAT XI-V 28 May 07:36:36 07:40:55 38° 264° (W) 07:45:16 437.345
CUTE-I 28 May 07:41:38 07:46:53 50° 99° (E) 07:52:07 437.470
STRAND 1 28 May 07:49:13 07:54:18 65° 258° (WSW) 07:59:24 437.568
Cubesat XI-IV 28 May 08:02:38 08:08:01 74° 103° (ESE) 08:13:24 437.490
SO-50 28 May 08:08:29 08:11:40 17° 358° (N) 08:14:52 436.795
PCSat 28 May 08:10:08 08:14:27 24° 28° (NNE) 08:18:49 145.827
RS-15 28 May 08:11:22 08:18:36 22° 101° (E) 08:26:29 29.354- 29.394
PRISM 28 May 08:25:13 08:28:32 23° 267° (W) 08:31:47 437.425
YUBILEINY 28 May 08:27:46 08:36:30 78° 97° (E) 08:45:15 435.215
M-CUBED/EXP-1 PRIME 28 May 08:39:46 08:42:53 20° 261° (W) 08:45:46 437.505
AO-7 28 May 08:45:43 08:51:42 22° 320° (NW) 08:57:29 29.400- 29.500
AIST 1 28 May 08:46:16 08:50:35 54° 264° (W) 08:54:52
AUBIESAT-1 28 May 08:46:41 08:49:41 20° 261° (W) 08:52:28 437.475
Cosmos 2504 28 May 08:53:01 08:56:21 14° 74° (ENE) 09:00:03 435.465 / 435.565
GOMX 1 28 May 09:16:42 09:21:30 32° 92° (E) 09:26:09 467.674
AAUSAT CUBESAT 2 28 May 09:19:38 09:20:01 10° 84° (E) 09:20:38 437.432
BRITE-PL 28 May 09:21:06 09:26:39 51° 97° (E) 09:31:59 437.365/2234.400
CUTE-I 28 May 09:22:06 09:26:47 31° 299° (WNW) 09:31:25 437.470
TIGRISAT 28 May 09:25:11 09:27:09 13° 55° (NE) 09:29:18 435.000
Cosmos 2491 28 May 09:29:35 09:35:56 22° 284° (WNW) 09:41:56 435.465 / 435.565
CINEMA 3 28 May 09:38:38 09:41:35 17° 85° (E) 09:44:36 145.822/145.860
Cubesat XI-IV 28 May 09:43:31 09:47:40 23° 303° (WNW) 09:51:42 437.490
UNISAT 6 28 May 09:44:52 09:48:02 19° 59° (ENE) 09:51:17 437.425
HO-68 28 May 09:45:40 09:52:20 40° 96° (E) 09:59:00 435.675
SO-50 28 May 09:49:55 09:53:51 23° 22° (NNE) 09:57:50 436.795
PCSat 28 May 09:53:19 09:58:47 75° 50° (NE) 10:04:13 145.827
NANOSAT C BR1 28 May 10:01:10 10:02:55 13° 56° (NE) 10:04:49 145.865
CANX-2 28 May 10:07:00 10:11:10 55° 100° (E) 10:15:18 2200.000
QB50P2 28 May 10:09:32 10:11:57 15° 58° (ENE) 10:14:30 145.880/145.840
DOVE 4 28 May 10:10:15 10:15:24 59° 100° (E) 10:20:15 437.250
CUTE 1.7 + AOD 2 28 May 10:10:20 10:14:29 54° 100° (E) 10:18:37 437.475
ZACube-1 28 May 10:16:23 10:17:58 12° 84° (E) 10:19:45 437.345
RS-15 28 May 10:18:19 10:29:07 74° 124° (SE) 10:40:22 29.354- 29.394
CUBEBUG 2 28 May 10:20:03 10:23:20 20° 89° (E) 10:26:38 437.445
POPSAT HIP 1 28 May 10:20:50 10:23:44 18° 60° (ENE) 10:26:46 437.405
DUCHIFAT 1 28 May 10:21:34 10:24:26 18° 60° (ENE) 10:27:24 145.980
Oscar 11 28 May 10:24:05 10:27:31 23° 92° (E) 10:30:59 145.826/435.025
YUBILEINY 28 May 10:26:48 10:34:24 31° 302° (WNW) 10:41:51 435.215
ANTELSAT 28 May 10:26:48 10:31:09 40° 67° (ENE) 10:35:28 437.575/2403.000
SEEDS 28 May 10:30:34 10:34:46 72° 102° (ESE) 10:38:56 437.485
BUGSAT 1 28 May 10:37:51 10:40:42 18° 60° (ENE) 10:43:40 437.445
Cosmos 2504 28 May 10:40:24 10:48:25 62° 94° (E) 10:55:57 435.465 / 435.565
COMPASS 1 28 May 10:41:23 10:45:34 76° 103° (ESE) 10:49:43 437.405
AAUSAT CUBESAT 2 28 May 10:52:14 10:56:24 85° 101° (E) 11:00:33 437.432
GOMX 1 28 May 10:54:36 10:59:48 46° 293° (WNW) 11:04:45 467.674
TIGRISAT 28 May 10:58:32 11:03:12 73° 73° (ENE) 11:07:49 435.000
BRITE-PL 28 May 10:59:54 11:04:57 33° 297° (WNW) 11:09:47 437.365/2234.400
QB50P1 28 May 11:03:20 11:07:22 41° 68° (ENE) 11:11:27 145.935-145.965
UWE-3 28 May 11:03:39 11:07:51 41° 97° (E) 11:11:56 435.000/436.395/437.385
POLYITAN 1 28 May 11:06:07 11:10:13 44° 69° (ENE) 11:14:23 437.675
DELFI C3 28 May 11:09:23 11:13:16 45° 98° (E) 11:17:09 145.870
FUNcube-1 28 May 11:09:39 11:13:41 37° 96° (E) 11:17:38 145.935
AISAT 28 May 11:17:42 11:19:55 14° 86° (E) 11:22:20 437.250
